DateTimeUTC,F1_A11,F1_S11,BsB_S11,BsG_S11,BsR_S11,BbsB_S11,BbsG_S11,BbsR_S11,BaB_A11,BaG_A11,BaR_A11,Tu_S11,T_S11,Uu_S11,U_S11,P_S11,T1_A11
2021-08-31T04:00:00Z,00000200,21000000,,,,,,,-000.21,0000.33,0000.04,17.6,25.0,,00.0,0674.4,30.9
2021-08-31T04:01:00Z,00000200,21000000,,,,,,,0000.23,0000.28,0000.49,17.6,25.0,,00.0,0674.4,30.9
2021-08-31T04:02:00Z,00000200,21000000,,,,,,,-000.14,-000.46,-000.46,17.6,25.0,,00.0,0674.4,30.9
2021-08-31T04:03:00Z,00000200,61000000,,,,,,,-000.27,-000.63,-000.54,17.7,25.0,,00.0,0674.4,30.9
2021-08-31T04:04:00Z,00000200,41000000,0000.06,0000.21,0000.03,-000.13,0000.09,0000.00,0000.10,0000.61,0000.40,18.2,24.9,,00.0,0675.4,30.9
2021-08-31T04:05:00Z,00000200,01000000,0000.57,0000.24,0000.08,0000.01,0000.07,0000.24,0000.14,0000.44,0000.27,18.3,24.9,,00.0,0675.5,30.9
2021-08-31T04:06:00Z,00000200,01000000,0000.67,-000.17,-000.03,-000.30,0000.05,-000.02,0000.99,0000.79,0000.54,18.4,25.0,,00.0,0675.4,30.9
2021-08-31T04:07:00Z,00000200,01000000,0000.54,-000.22,0000.14,-000.20,0000.16,0000.50,0000.13,0000.10,0000.49,18.4,25.0,,00.0,0675.4,30.9
2021-08-31T04:08:00Z,00000200,01000000,-000.10,0000.08,0000.16,-000.63,0000.17,0000.24,0000.20,0000.04,-000.16,18.3,24.9,,00.0,0675.4,30.9
2021-08-31T04:09:00Z,00000200,01000000,0000.45,-000.13,0000.31,0000.23,0000.23,0000.24,0000.11,0000.24,0000.06,18.2,24.9,,00.0,0675.4,30.9
2021-08-31T04:10:00Z,00000200,01000000,0000.51,0000.26,0000.17,-000.30,-000.14,-000.01,0000.36,0000.08,0000.41,18.1,24.8,,00.0,0675.4,30.9
2021-08-31T04:11:00Z,00000200,01000000,0000.11,-000.03,0000.06,0000.12,0000.10,0000.24,-000.07,0000.37,-000.08,18.0,24.8,,00.0,0675.4,30.9
2021-08-31T04:12:00Z,00000200,01000000,-000.21,0000.02,0000.39,0000.37,0000.01,0000.22,0000.79,0000.60,0000.33,17.9,24.7,,00.0,0675.4,30.9
2021-08-31T04:13:00Z,00000200,01000000,-000.15,0000.01,0000.28,0000.01,0000.23,0000.37,0000.37,-000.14,0000.18,17.9,24.7,,00.0,0675.4,30.9
2021-08-31T04:14:00Z,00000200,01000000,-000.02,-000.10,0000.37,-000.08,-000.07,0000.38,0000.68,0000.52,0000.55,17.9,24.6,,00.0,0675.3,30.8
2021-08-31T04:15:00Z,00000200,01000000,-000.37,0000.20,-000.02,-000.12,-000.17,0000.30,-000.06,0000.16,0000.21,17.9,24.6,,00.0,0675.3,30.9
2021-08-31T04:16:00Z,00000200,01000000,-000.56,-000.10,0000.17,-000.10,0000.34,0000.06,0000.05,0000.51,0000.09,18.0,24.7,,00.0,0675.3,30.9
2021-08-31T04:17:00Z,00000200,01000000,0000.65,-000.09,0000.15,0000.10,0000.08,0000.63,0000.30,-000.25,0000.07,18.1,24.7,,00.0,0675.3,30.9
2021-08-31T04:18:00Z,00000200,01000000,0000.21,-000.15,0000.18,-000.28,0000.04,0000.42,0000.10,0000.25,0000.44,18.2,24.7,,00.0,0675.3,30.9
2021-08-31T04:19:00Z,00000200,01000000,0000.14,0000.16,-000.11,0000.10,0000.05,0000.02,0000.51,0000.63,0000.27,18.3,24.8,,00.0,0675.3,30.9
2021-08-31T04:20:00Z,00000200,01000000,0000.28,0000.40,0000.34,0000.35,0000.11,0000.19,0000.78,0000.53,0000.22,18.4,24.8,,00.0,0675.3,30.9
2021-08-31T04:21:00Z,00000200,01000000,-000.08,-000.08,0000.28,0000.04,-000.09,0000.38,-000.27,0000.44,0000.21,18.5,24.9,,00.0,0675.3,30.9
2021-08-31T04:22:00Z,00000200,01000000,-000.36,-000.24,0000.10,-000.28,0000.09,0000.27,0000.30,-000.15,-000.10,18.5,24.9,,00.0,0675.3,30.9
2021-08-31T04:23:00Z,00000200,01000000,-000.25,-000.16,0000.06,-000.02,-000.01,0000.02,0000.17,0000.31,0000.21,18.6,25.0,,00.0,0675.3,30.9
2021-08-31T04:24:00Z,00000200,01000000,0000.31,0000.12,0000.07,-000.13,0000.15,-000.16,-000.56,-000.67,-000.33,18.6,25.0,,00.0,0675.3,30.9
2021-08-31T04:25:00Z,00000200,01000000,0000.69,-000.05,0000.12,0000.05,-000.02,0000.24,-000.22,-000.34,-000.64,18.6,25.0,,00.0,0675.2,30.9
2021-08-31T04:26:00Z,00000200,01000000,0000.25,0000.06,0000.04,0000.03,0000.08,0000.30,-000.32,-000.10,0000.20,18.5,24.9,,00.0,0675.3,30.9
2021-08-31T04:27:00Z,00000200,01000000,-000.21,-000.11,0000.02,0000.26,-000.09,0000.34,0000.35,0000.28,-000.08,18.4,24.9,,00.0,0675.3,30.9
2021-08-31T04:28:00Z,00000200,01000000,-000.14,0000.26,0000.49,-000.44,0000.15,0000.07,-000.40,-000.40,0000.01,18.3,24.8,,00.0,0675.2,30.9
2021-08-31T04:29:00Z,00000200,01000000,0000.68,0000.12,-000.06,0000.13,-000.21,0000.22,0000.15,0000.28,-000.01,18.2,24.8,,00.0,0675.3,30.9
2021-08-31T04:30:00Z,00000200,01000000,-000.14,0000.37,0000.21,0000.22,-000.04,0000.27,0000.07,0000.08,0000.40,18.3,24.8,,00.0,0675.3,30.9
2021-08-31T04:31:00Z,00000200,01000000,0000.12,0000.24,0000.18,0000.20,0000.06,0000.17,-000.04,-000.28,-000.38,18.3,24.8,,00.0,0675.3,30.9
2021-08-31T04:32:00Z,00000200,01000000,0000.07,-000.19,0000.16,0000.16,0000.18,0000.15,-000.26,-000.15,0000.05,18.4,24.9,,00.0,0675.2,30.9
2021-08-31T04:33:00Z,00000200,01000000,0000.67,0000.28,-000.14,-000.20,0000.08,-000.07,0000.25,0000.30,-000.29,18.5,24.9,,00.0,0675.3,31.0
2021-08-31T04:34:00Z,00000200,01000000,-000.03,0000.12,-000.09,0000.21,0000.00,0000.20,-000.11,-000.43,0000.53,18.6,25.0,,00.0,0675.3,31.0
2021-08-31T04:35:00Z,00000200,01000000,-000.02,-000.03,0000.53,0000.12,-000.16,0000.64,-000.00,0000.29,-000.19,18.7,25.0,,00.0,0675.3,30.9
2021-08-31T04:36:00Z,00000200,01000000,0000.04,0000.01,0000.50,-000.83,-000.03,0000.47,0000.53,0000.30,0000.14,18.7,25.0,,00.0,0675.3,31.0
2021-08-31T04:37:00Z,00000200,01000000,0000.13,0000.11,0000.10,-000.13,0000.23,-000.03,-000.12,0000.29,-000.04,18.7,25.0,,00.0,0675.2,31.0
2021-08-31T04:38:00Z,00000200,01000000,0000.26,0000.32,0000.19,-000.12,0000.11,0000.33,0000.39,-000.37,0000.27,18.6,25.0,,00.0,0675.2,30.9
2021-08-31T04:39:00Z,00000200,01000000,-000.39,0000.08,0000.05,-000.07,-000.02,0000.24,-000.18,0000.38,0000.02,18.5,25.0,,00.0,0675.2,30.9
2021-08-31T04:40:00Z,00000200,01000000,0000.44,-000.01,-000.09,-000.48,-000.08,0000.13,0000.37,0000.02,0000.13,18.4,24.9,,00.0,0675.2,30.9
2021-08-31T04:41:00Z,00000200,01000000,0000.45,0000.26,0000.21,-000.45,0000.16,0000.17,0000.23,0000.73,0000.19,18.3,24.9,,00.0,0675.2,30.9
2021-08-31T04:42:00Z,00000200,01000000,0000.09,0000.18,-000.13,0000.27,0000.24,0000.02,0000.17,-000.62,-000.28,18.2,24.8,,00.0,0675.2,30.9
2021-08-31T04:43:00Z,00000200,01000000,0000.83,-000.14,-000.26,0000.27,0000.02,0000.32,-000.19,0000.25,0000.09,18.2,24.8,,00.0,0675.1,30.9
2021-08-31T04:44:00Z,00000200,01000000,0001.00,0000.03,0000.21,0000.08,0000.07,0000.57,0000.02,0000.19,0000.15,18.2,24.8,,00.0,0675.1,30.9
2021-08-31T04:45:00Z,00000200,01000000,0000.17,0000.04,-000.08,0000.86,-000.25,0000.31,-000.22,0000.06,-000.05,18.2,24.8,,00.0,0675.2,30.9
2021-08-31T04:46:00Z,00000200,01000000,-000.13,0000.31,0000.05,-000.17,-000.04,0000.11,0000.21,-000.44,-000.04,18.3,24.8,,00.0,0675.2,30.9
2021-08-31T04:47:00Z,00000200,01000000,0001.05,0000.47,0000.34,-000.50,-000.02,0000.46,-000.61,-000.29,-000.37,18.3,24.8,,00.0,0675.2,30.9
2021-08-31T04:48:00Z,00000200,01000000,0000.94,0000.27,0000.06,0000.09,0000.03,0000.16,0000.12,0000.09,0000.37,18.4,24.9,,00.0,0675.2,30.9
2021-08-31T04:49:00Z,00000200,01000000,-000.37,0000.23,0000.22,-000.03,0000.09,0000.45,-000.21,0000.06,-000.51,18.5,24.9,,00.0,0675.2,30.9
2021-08-31T04:50:00Z,00000200,01000000,0000.54,-000.17,0000.05,-000.39,0000.26,0000.00,0000.02,0000.04,0000.26,18.6,25.0,,00.0,0675.2,31.0
2021-08-31T04:51:00Z,00000200,01000000,0000.26,0000.12,0000.25,0000.56,0000.09,0000.47,-000.26,-000.43,-000.29,18.6,25.0,,00.0,0675.2,30.9
2021-08-31T04:52:00Z,00000200,01000000,-000.05,0000.05,0000.13,0000.08,-000.14,0000.08,0000.00,0000.18,0000.05,18.5,24.9,,00.0,0675.2,30.9
2021-08-31T04:53:00Z,00000200,01000000,-000.35,0000.24,0000.36,0000.40,-000.04,0000.14,-000.13,-000.40,-000.13,18.5,24.9,,00.0,0675.2,30.9
2021-08-31T04:54:00Z,00000200,01000000,-000.05,0000.34,0000.37,-000.05,0000.03,0000.10,-000.32,-000.19,-000.58,18.4,24.9,,00.0,0675.2,30.9
2021-08-31T04:55:00Z,00000200,01000000,0000.60,0000.10,0000.32,0000.45,-000.02,0000.43,-000.26,-000.21,0000.37,18.3,24.8,,00.0,0675.2,30.9
2021-08-31T04:56:00Z,00000200,01000000,0001.06,0000.44,0000.26,0000.06,-000.05,-000.01,0000.26,-000.20,-000.41,18.2,24.8,,00.0,0675.2,30.9
2021-08-31T04:57:00Z,00000200,41000000,,,,,,,-000.07,-000.18,0000.13,18.2,24.8,,00.0,0675.1,30.9
2021-08-31T04:58:00Z,00000200,61000000,,,,,,,-000.16,-000.28,-000.32,17.7,24.9,,00.0,0674.2,30.9
2021-08-31T04:59:00Z,00000200,21000000,,,,,,,-000.13,0000.42,0000.20,17.7,25.0,,00.0,0674.1,30.9
